Погода в Константиновке

Украина / Харьковская область     49°56′57″N   35°06′41″E
темп.,
°C
ветер,
м/с
пор.,
м/с
влажн.,
%
обл.,
%
осадки,
мм/ч
давл.,
гПа
погр.,
м
24 июля, сб
сб2400:00+16сз22668 0.0 101312
03:00+16зсз22690 0.0 101412
06:00+16ссз117616 0.0 101411
09:00+22зсз34535 0.0 1014514
12:00+26сз433821 0.0 10142254
15:00+25сз454378 0.0 1014721
18:00+26ссз4443100 0.0 10151217
21:00+21ссв236032 0.0 101656
25 июля, вс
вс2500:00+18ссв227420 0.0 101725
03:00+17св127845 0.1 101811
06:00+17в228288 0.4 101932
09:00+20в236449 0.4 1020253
12:00+26вюв32445 0.0 10201316
15:00+28вюв213847 0.0 10192315
18:00+23св2356100 0.0 102080
21:00+21в225547 0.1 102119
26 июля, пн
пн2600:00+19вюв355735 0.0 102267
03:00+18вюв3558100 0.0 102291
06:00+18вюв245732 0.0 102384
09:00+24вюв464219 0.0 1023581
12:00+26в553617 0.0 10231210
15:00+29вюв243137 0.0 10222475
18:00+27св363989 0.0 1021538
21:00+21всв36500 0.0 102286
27 июля, вт
вт2700:00+19в47550 0.0 1022104
03:00+17в35600 0.0 102268
06:00+16всв33650 0.0 102356
09:00+24всв34430 0.0 1022503
12:00+28в34310 0.0 10221954
15:00+30в34275 0.0 10202631
18:00+29всв333028 0.0 10202367
21:00+22в49420 0.0 1020125
28 июля, ср
ср2800:00+20вюв49480 0.0 1021128
03:00+18вюв34540 0.0 102047
06:00+17вюв34611 0.0 102062
09:00+25юв45403 0.0 1019455
12:00+29ююв33325 0.0 10181767
15:00+31ю332819 0.0 10162425
18:00+30ююв3333100 0.0 10141272
21:00+25юв464496 0.0 101389